• In Hungary
  • List of Countries
  • For 7 days
  • Water Temperature
  • Satellite Maps
  • Weather Map
  • News
  • Weather Widgets
  • user-avatar
    Login

    Hourly Weather Chikoy

    Today, 24 June, Sunday

    Time Temperature Precipitation Wind Pressure Humidity
    00:00 +16°C° 0 mm 1 mps 702 mmHg 73%
    01:00 +14°C° 0 mm 0 mps 702 mmHg 76%
    02:00 +14°C° 0 mm 1 mps 702 mmHg 78%
    03:00 +14°C° 0 mm 1 mps 702 mmHg 79%
    04:00 +13°C° 0 mm 1 mps 702 mmHg 81%
    05:00 +15°C° 0 mm 1 mps 702 mmHg 73%
    06:00 +17°C° 0 mm 2 mps 702 mmHg 66%
    07:00 +20°C° 0 mm 2 mps 702 mmHg 58%
    08:00 +21°C° 0 mm 2 mps 702 mmHg 53%
    09:00 +22°C° 0 mm 3 mps 702 mmHg 48%
    10:00 +25°C° 0 mm 3 mps 702 mmHg 44%
    11:00 +25°C° 0.1 mm 3 mps 702 mmHg 42%
    12:00 +25°C° 0.1 mm 3 mps 702 mmHg 41%
    13:00 +26°C° 0.1 mm 3 mps 702 mmHg 40%
    14:00 +26°C° 0 mm 3 mps 702 mmHg 41%
    15:00 +25°C° 0 mm 3 mps 702 mmHg 42%
    16:00 +25°C° 0 mm 2 mps 702 mmHg 43%
    17:00 +24°C° 0 mm 2 mps 701 mmHg 46%
    18:00 +23°C° 0 mm 2 mps 701 mmHg 49%
    19:00 +22°C° 0 mm 1 mps 701 mmHg 53%
    20:00 +21°C° 0 mm 1 mps 701 mmHg 58%
    21:00 +19°C° 0 mm 1 mps 701 mmHg 62%
    22:00 +18°C° 0 mm 1 mps 701 mmHg 67%
    23:00 +16°C° 0 mm 1 mps 701 mmHg 70%

    Tomorrow, 25 June, Monday

    Time Temperature Precipitation Wind Pressure Humidity
    00:00 +16°C° 0 mm 1 mps 701 mmHg 73%
    01:00 +16°C° 0 mm 1 mps 701 mmHg 75%
    02:00 +16°C° 0 mm 1 mps 701 mmHg 76%
    03:00 +16°C° 0 mm 1 mps 701 mmHg 76%
    04:00 +16°C° 0 mm 1 mps 701 mmHg 76%
    05:00 +17°C° 0.1 mm 2 mps 701 mmHg 72%
    06:00 +18°C° 0.1 mm 2 mps 702 mmHg 68%
    07:00 +20°C° 0.1 mm 3 mps 702 mmHg 64%
    08:00 +21°C° 0.3 mm 4 mps 702 mmHg 62%
    09:00 +22°C° 0.3 mm 4 mps 702 mmHg 59%
    10:00 +23°C° 0.3 mm 5 mps 702 mmHg 57%
    11:00 +23°C° 0.4 mm 5 mps 702 mmHg 56%
    12:00 +23°C° 0.4 mm 4 mps 702 mmHg 55%
    13:00 +25°C° 0.4 mm 4 mps 702 mmHg 54%
    14:00 +23°C° 0.3 mm 4 mps 702 mmHg 56%
    15:00 +23°C° 0.3 mm 4 mps 702 mmHg 58%
    16:00 +24°C° 0.3 mm 3 mps 702 mmHg 59%
    17:00 +22°C° 0.6 mm 3 mps 702 mmHg 63%
    18:00 +21°C° 0.6 mm 3 mps 702 mmHg 67%
    19:00 +21°C° 0.6 mm 3 mps 702 mmHg 70%
    20:00 +19°C° 0.4 mm 2 mps 702 mmHg 75%
    21:00 +18°C° 0.4 mm 2 mps 703 mmHg 79%
    22:00 +16°C° 0.4 mm 2 mps 703 mmHg 84%
    23:00 +16°C° 0 mm 1 mps 703 mmHg 85%

    Day after tomorrow, 26 June, Tuesday

    Time Temperature Precipitation Wind Pressure Humidity
    00:00 +16°C° 0 mm 1 mps 703 mmHg 87%
    01:00 +15°C° 0 mm 1 mps 703 mmHg 88%
    02:00 +15°C° 0 mm 1 mps 703 mmHg 89%
    03:00 +14°C° 0 mm 1 mps 703 mmHg 89%
    04:00 +13°C° 0 mm 0 mps 703 mmHg 90%
    05:00 +16°C° 0.1 mm 1 mps 704 mmHg 85%
    06:00 +18°C° 0.1 mm 1 mps 704 mmHg 80%
    07:00 +20°C° 0.1 mm 1 mps 704 mmHg 74%
    08:00 +21°C° 0.6 mm 2 mps 704 mmHg 69%
    09:00 +22°C° 0.6 mm 3 mps 704 mmHg 64%
    10:00 +23°C° 0.6 mm 4 mps 704 mmHg 59%
    11:00 +26°C° 0.4 mm 5 mps 705 mmHg 54%
    12:00 +27°C° 0.4 mm 5 mps 705 mmHg 49%
    13:00 +28°C° 0.4 mm 5 mps 705 mmHg 44%
    14:00 +28°C° 0.1 mm 5 mps 705 mmHg 42%
    15:00 +28°C° 0.1 mm 6 mps 705 mmHg 40%
    16:00 +28°C° 0.1 mm 6 mps 705 mmHg 39%
    17:00 +27°C° 0 mm 5 mps 705 mmHg 42%
    18:00 +26°C° 0 mm 4 mps 705 mmHg 46%
    19:00 +25°C° 0 mm 3 mps 705 mmHg 50%
    20:00 +23°C° 0 mm 2 mps 705 mmHg 54%
    21:00 +20°C° 0 mm 2 mps 705 mmHg 59%
    22:00 +19°C° 0 mm 1 mps 706 mmHg 63%
    23:00 +19°C° 0 mm 1 mps 706 mmHg 65%

    27 June, Wednesday

    Time Temperature Precipitation Wind Pressure Humidity
    00:00 +18°C° 0 mm 1 mps 706 mmHg 67%
    01:00 +18°C° 0 mm 1 mps 706 mmHg 69%
    02:00 +16°C° 0 mm 1 mps 706 mmHg 72%
    03:00 +16°C° 0 mm 1 mps 706 mmHg 74%
    04:00 +15°C° 0 mm 1 mps 706 mmHg 76%
    05:00 +19°C° 0 mm 1 mps 706 mmHg 69%
    06:00 +21°C° 0 mm 1 mps 707 mmHg 62%
    07:00 +23°C° 0 mm 1 mps 707 mmHg 55%
    08:00 +25°C° 0 mm 2 mps 707 mmHg 49%
    09:00 +27°C° 0 mm 2 mps 707 mmHg 43%
    10:00 +28°C° 0 mm 3 mps 707 mmHg 37%
    11:00 +29°C° 0 mm 3 mps 707 mmHg 34%
    12:00 +30°C° 0 mm 3 mps 706 mmHg 31%
    13:00 +32°C° 0 mm 4 mps 706 mmHg 28%
    14:00 +32°C° 0 mm 4 mps 706 mmHg 27%
    15:00 +33°C° 0 mm 4 mps 706 mmHg 26%
    16:00 +33°C° 0 mm 4 mps 705 mmHg 26%
    17:00 +30°C° 0 mm 3 mps 705 mmHg 31%
    18:00 +29°C° 0 mm 2 mps 705 mmHg 37%
    19:00 +27°C° 0 mm 2 mps 705 mmHg 42%
    20:00 +25°C° 0 mm 1 mps 705 mmHg 47%
    21:00 +22°C° 0 mm 1 mps 705 mmHg 51%
    22:00 +20°C° 0 mm 1 mps 705 mmHg 55%
    23:00 +19°C° 0 mm 1 mps 705 mmHg 57%

    28 June, Thursday

    Time Temperature Precipitation Wind Pressure Humidity
    00:00 +17°C° 0 mm 0 mps 705 mmHg 59%
    01:00 +16°C° 0 mm 0 mps 705 mmHg 60%
    02:00 +16°C° 0 mm 0 mps 704 mmHg 62%
    03:00 +16°C° 0 mm 1 mps 704 mmHg 63%
    04:00 +16°C° 0 mm 1 mps 704 mmHg 65%
    05:00 +19°C° 0 mm 1 mps 704 mmHg 59%
    06:00 +22°C° 0 mm 1 mps 704 mmHg 53%
    07:00 +24°C° 0 mm 1 mps 704 mmHg 48%
    08:00 +26°C° 0 mm 1 mps 704 mmHg 43%
    09:00 +28°C° 0 mm 2 mps 704 mmHg 38%
    10:00 +30°C° 0 mm 2 mps 703 mmHg 33%
    11:00 +31°C° 0 mm 2 mps 703 mmHg 31%
    12:00 +32°C° 0 mm 2 mps 702 mmHg 28%
    13:00 +35°C° 0 mm 2 mps 702 mmHg 26%
    14:00 +35°C° 0 mm 2 mps 701 mmHg 26%
    15:00 +34°C° 0 mm 1 mps 701 mmHg 26%
    16:00 +34°C° 0 mm 1 mps 700 mmHg 25%
    17:00 +32°C° 0 mm 1 mps 700 mmHg 31%
    18:00 +31°C° 0 mm 1 mps 700 mmHg 37%
    19:00 +29°C° 0 mm 1 mps 700 mmHg 43%
    20:00 +27°C° 0.1 mm 1 mps 700 mmHg 47%
    21:00 +25°C° 0.1 mm 1 mps 699 mmHg 51%
    22:00 +23°C° 0.1 mm 1 mps 699 mmHg 55%
    23:00 +22°C° 0.1 mm 1 mps 699 mmHg 58%

    29 June, Friday

    Time Temperature Precipitation Wind Pressure Humidity
    00:00 +22°C° 0.1 mm 1 mps 699 mmHg 61%
    01:00 +20°C° 0.1 mm 2 mps 699 mmHg 64%
    02:00 +20°C° 0 mm 1 mps 699 mmHg 66%
    03:00 +20°C° 0 mm 1 mps 699 mmHg 68%
    04:00 +19°C° 0 mm 1 mps 699 mmHg 70%
    05:00 +21°C° 0 mm 1 mps 699 mmHg 64%
    06:00 +23°C° 0 mm 1 mps 699 mmHg 59%
    07:00 +26°C° 0 mm 1 mps 699 mmHg 53%
    08:00 +28°C° 0 mm 1 mps 699 mmHg 48%
    09:00 +30°C° 0 mm 1 mps 699 mmHg 42%
    10:00 +32°C° 0 mm 1 mps 699 mmHg 37%
    11:00 +33°C° 0 mm 1 mps 699 mmHg 33%
    12:00 +35°C° 0 mm 2 mps 699 mmHg 29%
    13:00 +36°C° 0 mm 2 mps 699 mmHg 25%
    14:00 +36°C° 0 mm 2 mps 698 mmHg 25%
    15:00 +36°C° 0 mm 3 mps 698 mmHg 24%
    16:00 +36°C° 0 mm 3 mps 698 mmHg 24%
    17:00 +34°C° 0 mm 3 mps 698 mmHg 29%
    18:00 +31°C° 0 mm 3 mps 698 mmHg 35%
    19:00 +29°C° 0 mm 3 mps 698 mmHg 40%
    20:00 +27°C° 0 mm 3 mps 698 mmHg 45%
    21:00 +25°C° 0 mm 2 mps 697 mmHg 51%
    22:00 +23°C° 0 mm 2 mps 697 mmHg 56%
    23:00 +21°C° 0 mm 2 mps 697 mmHg 58%
    Show more